Regional Weather Roundup
Issued by NWS

Home | Current Version | Previous Version | Text Only | Print | Product List | Glossary Off
Versions: 1 2 3 4 5 6 7 8 9 10 11 12 13 14 15 16 17 18 19 20 21 22 23 24 25 26 27 28 29 30 31 32 33 34 35 36 37 38 39 40 41 42 43 44 45 46 47 48 49 50

000
ASUS43 KIND 240009
RWRIN

WEATHER ROUNDUP FOR INDIANA
NATIONAL WEATHER SERVICE INDIANAPOLIS IN
800 PM EDT TUE SEP 23 2014

NOTE: "FAIR" INDICATES FEW OR NO CLOUDS BELOW 12,000 FEET WITH NO
SIGNIFICANT WEATHER AND/OR OBSTRUCTIONS TO VISIBILITY.

* - STATION DOES NOT REPORT WEATHER SUCH AS PRECIPITATION OR FOG.

+ - STATION NOT QUALITY CONTROLLED BY THE NATIONAL WEATHER SERVICE.
    USE DATA WITH CAUTION...ESPECIALLY DEWPOINT AND RELATIVE
    HUMIDITY OBSERVATIONS.

INZ001>003-010>013-019-020-240100-
NORTHWEST INDIANA

CITY           SKY/WX    TMP DP  RH WIND       PRES   REMARKS
GARY /AIRPORT/ PTCLDY    61  50  67 NE5       30.30R
KNOX *+        CLEAR     61  51  69 CALM      30.28S
LA PORTE +     CLEAR     59  50  71 N5        30.31R
6HR MIN TEMP:  59; 6HR MAX TEMP:  71;

MICHIGAN CITY+ CLEAR     55  50  82 CALM      30.30S
MONTICELLO +   CLEAR     62  51  67 CALM      30.27S
RENSSELAER +   CLEAR     59  54  82 CALM      30.28S HAZE
VALPARAISO     CLEAR     63  51  65 N3        30.30R
6HR MIN TEMP:  63; 6HR MAX TEMP:  74;


$$

LMZ046-743>745-240100-
SOUTHERN LAKE MICHIGAN

STATION/POSITION TIME  TEMP WIND        PRES
                       AIR  DIR/SP/G
                 (UTC) (F)  (DEG/KT/KT) (MB)

$$

INZ004-005-014>016-021>024-240100-
NORTH CENTRAL INDIANA

CITY           SKY/WX    TMP DP  RH WIND       PRES   REMARKS
ELKHART        CLEAR     63  54  72 CALM      30.30S
GOSHEN         CLEAR     61  52  72 E6        30.30S
6HR MIN TEMP:  60; 6HR MAX TEMP:  72;

LOGANSPORT +   CLEAR     59  46  63 E6        30.29S
PERU/GRISSOM   CLEAR     65  51  61 E5        30.29S
6HR MIN TEMP:  64; 6HR MAX TEMP:  72;

ROCHESTER +    CLEAR     63  52  67 CALM      30.29F
SOUTH BEND     CLEAR     64  50  60 N6        30.31R
6HR MIN TEMP:  63; 6HR MAX TEMP:  73;

WARSAW +       CLEAR     59  50  72 CALM      30.30S

$$

INZ006>009-017-018-025>027-240100-
NORTHEAST INDIANA

CITY           SKY/WX    TMP DP  RH WIND       PRES   REMARKS
ANGOLA *+      CLEAR     61  52  72 CALM      30.31S
AUBURN +       CLEAR     59  52  77 CALM      30.31S
FORT WAYNE     CLEAR     61  50  67 E3        30.31S
6HR MIN TEMP:  61; 6HR MAX TEMP:  72;

HUNTINGTON +   CLEAR     61  51  70 CALM      30.30S
6HR MIN TEMP:  61; 6HR MAX TEMP:  70;


$$

INZ028-029-035-036-043>045-051>053-240100-
WEST CENTRAL INDIANA

CITY           SKY/WX    TMP DP  RH WIND       PRES   REMARKS
GREENCASTLE +  CLEAR     59  52  77 CALM      30.28R
LAFAYETTE      CLEAR     60  50  69 CALM      30.27S
6HR MIN TEMP:  60; 6HR MAX TEMP:  71;

TERRE HAUTE    CLEAR     62  50  64 SE5       30.27R
6HR MIN TEMP:  62; 6HR MAX TEMP:  73;


$$

INZ030>032-037>040-046>048-054>057-064-065-240100-
CENTRAL INDIANA

CITY           SKY/WX    TMP DP  RH WIND       PRES   REMARKS
CP ATTERBURY + CLEAR     59  50  72 CALM      30.27S
COLUMBUS       CLEAR     64  46  52 CALM      30.27S
FRANKFORT +    CLEAR     61  50  66 NE5       30.29S
INDIANAPOLIS   PTCLDY    66  46  48 NE6       30.26F
6HR MIN TEMP:  66; 6HR MAX TEMP:  72;

-EAGLE CREEK   CLEAR     67  45  45 NE5       30.27S
6HR MIN TEMP:  67; 6HR MAX TEMP:  72;

KOKOMO *+      CLEAR     61  48  63 E5        30.29S
MARION +       CLEAR     60  49  65 E5        30.30S
MT COMFORT *+  CLEAR     61  45  55 E5        30.29S
SHELBYVILLE    CLEAR     63  49  60 NE5       30.27S
6HR MIN TEMP:  62; 6HR MAX TEMP:  75;

ZIONSVILLE +   CLEAR     64  47  53 CALM      30.29S
6HR MIN TEMP:  64; 6HR MAX TEMP:  72;


$$

INZ033-034-041-042-049-050-058-059-240100-
EAST CENTRAL INDIANA

CITY           SKY/WX    TMP DP  RH WIND       PRES   REMARKS
MUNCIE         CLEAR     59  49  69 NE5       30.29S
6HR MIN TEMP:  59; 6HR MAX TEMP:  72;


$$

INZ060-061-067>069-081>083-085>088-240100-
SOUTHWEST INDIANA

CITY           SKY/WX    TMP DP  RH WIND       PRES   REMARKS
EVANSVILLE     CLEAR     66  51  58 NE3       30.24S
6HR MIN TEMP:  66; 6HR MAX TEMP:  75;

WASHINGTON +   CLEAR     63  50  61 NE3       30.25S
6HR MIN TEMP:  63; 6HR MAX TEMP:  73;


$$

INZ062-063-066-070>080-084-089>092-240100-
SOUTH CENTRAL AND SOUTHEAST INDIANA

CITY           SKY/WX    TMP DP  RH WIND       PRES   REMARKS
BLOOMINGTON    CLEAR     55  51  86 CALM      30.27S
6HR MIN TEMP:  55; 6HR MAX TEMP:  72;


$$



USA.gov is the U.S. government's official web portal to all federal, state and local government web resources and services.